This is the latest recevied weather packets stored in our database for station/object K7DC. If no packets are shown the sender has not sent any weather packets the latest 10 day(s).
| Time | Temp. | Humidity | Pressure | Rain* | Wind** | Luminosity | Snow |
|---|---|---|---|---|---|---|---|
| 1777505368 | 30° C | 10% | 1012.8 hPa | 0 mm | - | 212 W/m² | - |
| 1777502334 | 29.44° C | 10% | 1012.9 hPa | 0 mm | - | 433 W/m² | - |
| 1777501727 | 30.56° C | 10% | 1013.2 hPa | 0 mm | - | 265 W/m² | - |
| 1777501424 | 30.56° C | 9% | 1013.7 hPa | 0 mm | - | 317 W/m² | - |
| 1777501121 | 31.11° C | 9% | 1013.5 hPa | 0 mm | - | 483 W/m² | - |
| 1777500820 | 31.11° C | 9% | 1013.4 hPa | 0 mm | - | 351 W/m² | - |
| 1777500517 | 31.11° C | 9% | 1013.4 hPa | 0 mm | - | 377 W/m² | - |
| 1777500213 | 30.56° C | 10% | 1013.8 hPa | 0 mm | - | 435 W/m² | - |
| 1777499910 | 30° C | 11% | 1013.8 hPa | 0 mm | - | 406 W/m² | - |
| 1777498697 | 30.56° C | 11% | 1014 hPa | 0 mm | - | 393 W/m² | - |
| 1777497788 | 30.56° C | 12% | 1014.3 hPa | 0 mm | - | 385 W/m² | - |
| 1777497484 | 30.56° C | 12% | 1014.2 hPa | 0 mm | - | 400 W/m² | - |
| 1777496877 | 31.11° C | 12% | 1014.4 hPa | 0 mm | - | 366 W/m² | - |
| 1777496574 | 31.11° C | 12% | 1014.5 hPa | 0 mm | - | 436 W/m² | - |
| 1777496270 | 30.56° C | 12% | 1014.6 hPa | 0 mm | - | 452 W/m² | - |
| 1777495056 | 30.56° C | 12% | 1015.1 hPa | 0 mm | - | 666 W/m² | - |
| 1777494753 | 31.11° C | 11% | 1015 hPa | 0 mm | - | 761 W/m² | - |
| 1777494450 | 30.56° C | 12% | 1015 hPa | 0 mm | - | 552 W/m² | - |
| 1777494146 | 30° C | 12% | 1015.1 hPa | 0 mm | - | 595 W/m² | - |
| 1777493844 | 28.89° C | 12% | 1015.1 hPa | 0 mm | - | 612 W/m² | - |
| 1777493542 | 30° C | 12% | 1015.1 hPa | 0 mm | - | 738 W/m² | - |
| 1777493239 | 30.56° C | 12% | 1015.5 hPa | 0 mm | - | 710 W/m² | - |
| 1777492935 | 31.11° C | 11% | 1015.5 hPa | 0 mm | - | 660 W/m² | - |
| 1777492327 | 31.11° C | 11% | 1015.5 hPa | 0 mm | - | 640 W/m² | - |
| 1777490810 | 30.56° C | 12% | 1016 hPa | 0 mm | - | 676 W/m² | - |
* Rain latest hour (hover to see other rain measurements)
** Current wind speed in m/s (hover to see current wind gust speed)